^^

Weather Underground History

Daily Summary for December 12, 2019 Units:  Metric    English   Both
Daily Weekly Monthly Yearly Custom
  Current: High: Low: Average:
Temperature: 1.4 °C 1.4 °C 0.3 °C 0.6 °C
Dew Point: 0.5 °C 0.5 °C -0.6 °C -0.2 °C
Humidity: 94% 94% 94% 94%
Wind Speed: 10.3km/h 11km/h 0km/h 4.6km/h
Wind Gust: 16.1km/h 17.7km/h - -
WindSSE - - SSW
Pressure: 990.2 hPa 999.6 hPa 990.2 hPa -
Precipitation: 0.0 mm      
Historical Graphs
 
 
Tabular Data for December 12, 2019
Time Temperature Dew Point Pressure Wind Wind Speed Wind Gust Humidity Rainfall Rate (Hourly) solar
00:04 0.5 °C -0.4 °C 999.6 hPa WSW 3.9 km/h 6.4 km/h 94% 0.0 mm 0 W/m2
00:09 0.5 °C -0.4 °C 999.6 hPa WSW 4.5 km/h 8 km/h 94% 0.0 mm 0 W/m2
00:14 0.5 °C -0.3 °C 999.5 hPa WSW 4 km/h 9.7 km/h 94% 0.0 mm 0 W/m2
00:19 0.5 °C -0.3 °C 999.4 hPa WSW 4.3 km/h 8 km/h 94% 0.0 mm 0 W/m2
00:24 0.5 °C -0.3 °C 999.4 hPa WSW 4.5 km/h 8 km/h 94% 0.0 mm 0 W/m2
00:29 0.5 °C -0.4 °C 999.3 hPa WSW 4.8 km/h 8 km/h 94% 0.0 mm 0 W/m2
00:34 0.5 °C -0.4 °C 999.3 hPa WSW 4.7 km/h 8 km/h 94% 0.0 mm 0 W/m2
00:39 0.4 °C -0.4 °C 999.3 hPa WSW 3.9 km/h 6.4 km/h 94% 0.0 mm 0 W/m2
00:44 0.4 °C -0.4 °C 999.3 hPa WSW 4.6 km/h 11.3 km/h 94% 0.0 mm 0 W/m2
00:49 0.4 °C -0.4 °C 999.2 hPa WSW 3.9 km/h 8 km/h 94% 0.0 mm 0 W/m2
00:54 0.4 °C -0.5 °C 999.2 hPa WSW 4.4 km/h 8 km/h 94% 0.0 mm 0 W/m2
00:59 0.3 °C -0.5 °C 999.2 hPa WSW 4 km/h 8 km/h 94% 0.0 mm 0 W/m2
01:04 0.3 °C -0.5 °C 999.1 hPa WSW 4.5 km/h 8 km/h 94% 0.0 mm 0 W/m2
01:09 0.3 °C -0.6 °C 999.1 hPa WSW 5 km/h 8 km/h 94% 0.0 mm 0 W/m2
01:14 0.3 °C -0.5 °C 999.1 hPa WSW 4.6 km/h 8 km/h 94% 0.0 mm 0 W/m2
01:19 0.3 °C -0.5 °C 999.0 hPa WSW 5.4 km/h 9.7 km/h 94% 0.0 mm 0 W/m2
01:24 0.4 °C -0.5 °C 999.0 hPa WSW 1.3 km/h 8 km/h 94% 0.0 mm 0 W/m2
01:29 0.4 °C -0.5 °C 999.0 hPa WSW 3.1 km/h 6.4 km/h 94% 0.0 mm 0 W/m2
01:34 0.3 °C -0.5 °C 999.0 hPa WSW 2.1 km/h 6.4 km/h 94% 0.0 mm 0 W/m2
01:39 0.3 °C -0.5 °C 999.0 hPa WSW 0.1 km/h 4.8 km/h 94% 0.0 mm 0 W/m2
01:44 0.3 °C -0.6 °C 998.8 hPa Calm     94% 0.0 mm 0 W/m2
01:49 0.3 °C -0.6 °C 998.8 hPa WSW 1.8 km/h 4.8 km/h 94% 0.0 mm 0 W/m2
01:54 0.3 °C -0.5 °C 998.7 hPa WSW 2.7 km/h 6.4 km/h 94% 0.0 mm 0 W/m2
01:59 0.3 °C -0.5 °C 998.7 hPa WSW 2.9 km/h 6.4 km/h 94% 0.0 mm 0 W/m2
02:04 0.3 °C -0.5 °C 998.6 hPa WSW 2.3 km/h 8 km/h 94% 0.0 mm 0 W/m2
02:09 0.3 °C -0.5 °C 998.6 hPa WSW 3.4 km/h 6.4 km/h 94% 0.0 mm 0 W/m2
02:14 0.4 °C -0.5 °C 998.4 hPa SW 4.9 km/h 11.3 km/h 94% 0.0 mm 0 W/m2
02:19 0.4 °C -0.4 °C 998.4 hPa SW 3.6 km/h 11.3 km/h 94% 0.0 mm 0 W/m2
02:24 0.5 °C -0.4 °C 998.3 hPa SW 2.6 km/h 6.4 km/h 94% 0.0 mm 0 W/m2
02:29 0.4 °C -0.4 °C 998.3 hPa SW 2.9 km/h 6.4 km/h 94% 0.0 mm 0 W/m2
02:34 0.4 °C -0.4 °C 998.2 hPa SW 1.6 km/h 6.4 km/h 94% 0.0 mm 0 W/m2
02:39 0.4 °C -0.4 °C 998.1 hPa SW 1.8 km/h 4.8 km/h 94% 0.0 mm 0 W/m2
02:44 0.4 °C -0.5 °C 997.9 hPa SW 1.2 km/h 6.4 km/h 94% 0.0 mm 0 W/m2
02:49 0.3 °C -0.5 °C 997.7 hPa SW 1.7 km/h 6.4 km/h 94% 0.0 mm 0 W/m2
02:54 0.3 °C -0.5 °C 997.6 hPa SW 2.3 km/h 6.4 km/h 94% 0.0 mm 0 W/m2
02:59 0.3 °C -0.5 °C 997.6 hPa SW 2.7 km/h 6.4 km/h 94% 0.0 mm 0 W/m2
03:04 0.3 °C -0.5 °C 997.5 hPa SW 2.5 km/h 6.4 km/h 94% 0.0 mm 0 W/m2
03:09 0.3 °C -0.5 °C 997.4 hPa SW 2.7 km/h 4.8 km/h 94% 0.0 mm 0 W/m2
03:14 0.3 °C -0.5 °C 997.4 hPa SW 2 km/h 4.8 km/h 94% 0.0 mm 0 W/m2
03:19 0.3 °C -0.5 °C 997.4 hPa SW 2.3 km/h 8 km/h 94% 0.0 mm 0 W/m2
03:24 0.4 °C -0.5 °C 997.2 hPa SW 2.9 km/h 8 km/h 94% 0.0 mm 0 W/m2
03:29 0.4 °C -0.4 °C 997.1 hPa SW 2.6 km/h 6.4 km/h 94% 0.0 mm 0 W/m2
03:34 0.5 °C -0.4 °C 997.0 hPa SW 3.7 km/h 8 km/h 94% 0.0 mm 0 W/m2
03:39 0.5 °C -0.4 °C 997.0 hPa SW 3.8 km/h 8 km/h 94% 0.0 mm 0 W/m2
03:44 0.5 °C -0.3 °C 996.9 hPa SW 2.4 km/h 8 km/h 94% 0.0 mm 0 W/m2
03:49 0.5 °C -0.4 °C 996.8 hPa SW 2.3 km/h 8 km/h 94% 0.0 mm 0 W/m2
03:54 0.5 °C -0.4 °C 996.7 hPa SW 1 km/h 6.4 km/h 94% 0.0 mm 0 W/m2
03:59 0.4 °C -0.4 °C 996.7 hPa SW 3.2 km/h 6.4 km/h 94% 0.0 mm 0 W/m2
04:04 0.4 °C -0.4 °C 996.6 hPa SW 0.9 km/h 6.4 km/h 94% 0.0 mm 0 W/m2
04:09 0.4 °C -0.4 °C 996.4 hPa SW 1.3 km/h 4.8 km/h 94% 0.0 mm 0 W/m2
04:14 0.4 °C -0.4 °C 996.3 hPa SW 1.5 km/h 4.8 km/h 94% 0.0 mm 0 W/m2
04:19 0.4 °C -0.4 °C 996.1 hPa SW 0.9 km/h 4.8 km/h 94% 0.0 mm 0 W/m2
04:24 0.5 °C -0.4 °C 996.1 hPa SW 3.6 km/h 6.4 km/h 94% 0.0 mm 0 W/m2
04:29 0.5 °C -0.4 °C 996.0 hPa SW 3.5 km/h 6.4 km/h 94% 0.0 mm 0 W/m2
04:34 0.5 °C -0.4 °C 995.8 hPa SW 2.1 km/h 6.4 km/h 94% 0.0 mm 0 W/m2
04:39 0.5 °C -0.4 °C 995.7 hPa SW 3.2 km/h 8 km/h 94% 0.0 mm 0 W/m2
04:44 0.5 °C -0.3 °C 995.6 hPa SW 3.7 km/h 9.7 km/h 94% 0.0 mm 0 W/m2
04:49 0.6 °C -0.3 °C 995.6 hPa SSW 5.6 km/h 9.7 km/h 94% 0.0 mm 0 W/m2
04:54 0.6 °C -0.3 °C 995.5 hPa SSW 4.7 km/h 9.7 km/h 94% 0.0 mm 0 W/m2
04:59 0.6 °C -0.2 °C 995.4 hPa SW 3.4 km/h 8 km/h 94% 0.0 mm 0 W/m2
05:04 0.6 °C -0.2 °C 995.3 hPa SW 3.9 km/h 8 km/h 94% 0.0 mm 0 W/m2
05:09 0.6 °C -0.2 °C 995.3 hPa SW 4.4 km/h 9.7 km/h 94% 0.0 mm 0 W/m2
05:14 0.6 °C -0.2 °C 995.3 hPa SSW 4.7 km/h 9.7 km/h 94% 0.0 mm 0 W/m2
05:19 0.7 °C -0.2 °C 995.3 hPa SSW 5.4 km/h 8 km/h 94% 0.0 mm 0 W/m2
05:24 0.7 °C -0.2 °C 995.1 hPa South 5.1 km/h 12.9 km/h 94% 0.0 mm 0 W/m2
05:29 0.7 °C -0.1 °C 995.0 hPa SSW 4.8 km/h 9.7 km/h 94% 0.0 mm 0 W/m2
05:34 0.7 °C -0.1 °C 994.9 hPa South 5.2 km/h 12.9 km/h 94% 0.0 mm 0 W/m2
05:39 0.7 °C -0.1 °C 994.8 hPa South 4.9 km/h 12.9 km/h 94% 0.0 mm 0 W/m2
05:44 0.7 °C -0.1 °C 994.7 hPa South 4.9 km/h 9.7 km/h 94% 0.0 mm 0 W/m2
05:49 0.7 °C -0.1 °C 994.6 hPa South 3.7 km/h 9.7 km/h 94% 0.0 mm 0 W/m2
05:54 0.7 °C -0.1 °C 994.5 hPa South 4.7 km/h 9.7 km/h 94% 0.0 mm 0 W/m2
05:59 0.7 °C -0.1 °C 994.3 hPa South 4.3 km/h 11.3 km/h 94% 0.0 mm 0 W/m2
06:04 0.7 °C -0.1 °C 994.2 hPa South 4.7 km/h 9.7 km/h 94% 0.0 mm 0 W/m2
06:09 0.7 °C -0.1 °C 994.1 hPa South 5.4 km/h 11.3 km/h 94% 0.0 mm 0 W/m2
06:14 0.8 °C -0.1 °C 994.0 hPa South 6.4 km/h 11.3 km/h 94% 0.0 mm 0 W/m2
06:19 0.8 °C -0.1 °C 994.0 hPa South 6.2 km/h 11.3 km/h 94% 0.0 mm 0 W/m2
06:24 0.8 °C -0.1 °C 993.9 hPa South 5 km/h 11.3 km/h 94% 0.0 mm 0 W/m2
06:29 0.8 °C -0.1 °C 993.8 hPa South 6.9 km/h 11.3 km/h 94% 0.0 mm 0 W/m2
06:34 0.8 °C -0.1 °C 993.8 hPa South 4.9 km/h 11.3 km/h 94% 0.0 mm 0 W/m2
06:39 0.7 °C -0.1 °C 993.7 hPa South 5.2 km/h 9.7 km/h 94% 0.0 mm 0 W/m2
06:44 0.7 °C -0.1 °C 993.6 hPa South 4.1 km/h 9.7 km/h 94% 0.0 mm 0 W/m2
06:49 0.7 °C -0.1 °C 993.4 hPa South 3.8 km/h 8 km/h 94% 0.0 mm 0 W/m2
06:54 0.7 °C -0.2 °C 993.3 hPa South 3.4 km/h 11.3 km/h 94% 0.0 mm 0 W/m2
06:59 0.7 °C -0.2 °C 993.1 hPa South 4.6 km/h 11.3 km/h 94% 0.0 mm 0 W/m2
07:04 0.7 °C -0.2 °C 993.0 hPa South 4.9 km/h 9.7 km/h 94% 0.0 mm 0 W/m2
07:09 0.8 °C -0.1 °C 992.8 hPa South 5.3 km/h 9.7 km/h 94% 0.0 mm 0 W/m2
07:14 0.8 °C 0 °C 992.7 hPa South 7.1 km/h 11.3 km/h 94% 0.0 mm 0 W/m2
07:19 0.9 °C 0.1 °C 992.6 hPa SSE 7 km/h 11.3 km/h 94% 0.0 mm 0 W/m2
07:24 0.9 °C 0.1 °C 992.4 hPa SSE 6.5 km/h 11.3 km/h 94% 0.0 mm 0 W/m2
07:29 1 °C 0.1 °C 992.3 hPa SSE 7.2 km/h 11.3 km/h 94% 0.0 mm 0 W/m2
07:34 1 °C 0.2 °C 992.2 hPa SSE 9 km/h 12.9 km/h 94% 0.0 mm 0 W/m2
07:39 1.1 °C 0.2 °C 992.1 hPa SE 5.7 km/h 12.9 km/h 94% 0.0 mm 0 W/m2
07:44 1.1 °C 0.3 °C 992.0 hPa SSE 6.5 km/h 12.9 km/h 94% 0.0 mm 0 W/m2
07:49 1.1 °C 0.3 °C 991.9 hPa SE 6.4 km/h 9.7 km/h 94% 0.0 mm 0 W/m2
07:54 1.1 °C 0.3 °C 991.7 hPa SSE 8.4 km/h 11.3 km/h 94% 0.0 mm 0 W/m2
07:59 1.1 °C 0.3 °C 991.6 hPa SSE 9 km/h 12.9 km/h 94% 0.0 mm 0 W/m2
08:04 1.1 °C 0.2 °C 991.4 hPa SSE 8.3 km/h 12.9 km/h 94% 0.0 mm 0 W/m2
08:09 1.1 °C 0.2 °C 991.2 hPa SSE 8.3 km/h 14.5 km/h 94% 0.0 mm 0 W/m2
08:14 1.1 °C 0.2 °C 991.0 hPa SSE 10.4 km/h 17.7 km/h 94% 0.0 mm 0 W/m2
08:19 1.1 °C 0.2 °C 990.9 hPa SSE 9.8 km/h 16.1 km/h 94% 0.0 mm 5 W/m2
08:24 1.1 °C 0.3 °C 990.7 hPa SSE 11 km/h 17.7 km/h 94% 0.0 mm 7 W/m2
08:29 1.2 °C 0.3 °C 990.7 hPa SSE 10.6 km/h 17.7 km/h 94% 0.0 mm 9 W/m2
08:34 1.2 °C 0.3 °C 990.6 hPa SSE 9.4 km/h 17.7 km/h 94% 0.0 mm 11 W/m2
08:39 1.2 °C 0.4 °C 990.5 hPa SSE 9.2 km/h 16.1 km/h 94% 0.0 mm 12 W/m2
08:44 1.3 °C 0.4 °C 990.4 hPa SSE 10.4 km/h 16.1 km/h 94% 0.0 mm 12 W/m2
08:49 1.3 °C 0.5 °C 990.3 hPa SSE 9.1 km/h 16.1 km/h 94% 0.0 mm 11 W/m2
08:54 1.4 °C 0.5 °C 990.2 hPa SSE 10.3 km/h 16.1 km/h 94% 0.0 mm 9 W/m2
Compliments of Weather Underground - 3 mb